Location: Camaret
(48.2753°N, 4.5961°W)
Time: 04:31:50
(UTC+00:00)

H-2A R/B - Pass Details

Date: 29 October 2020
Orbit: 733 x 837 km, 98.2° (Epoch: 01 December)

Event Time Altitude Azimuth Distance (km) Brightness Sun altitude
Rises 17:57:59 0° 128° (SE) 3,367 4.9 -9.6°
Reaches altitude 10° 18:00:39 10° 116° (ESE) 2,445 4.1 -10.0°
Maximum altitude 18:05:05 26° 61° (ENE) 1,588 3.1 -10.7°
Drops below altitude 10° 18:09:32 10° 7° (N) 2,461 4.5 -11.5°
Sets 18:12:14 0° 355° (N) 3,394 5.3 -11.9°
